Погода в Добринке

Россия / Волгоградская область     48°49′22″N   42°58′14″E
темп.,
°C
ветер,
м/с
пор.,
м/с
влажн.,
%
обл.,
%
осадки,
мм/ч
давл.,
гПа
погр.,
м
16 мая, вс
вс1600:00+18юв464699 0.0 101379
03:00+16юв4744100 0.0 1013112
06:00+16юв395641 0.0 1013180
09:00+23юв583918 0.0 1014440
12:00+28юв682725 0.0 10131363
15:00+30юв6102526 0.0 10122269
18:00+27в354123 0.0 101079
21:00+21вюв51348100 0.0 1011230
17 мая, пн
пн1700:00+19вюв5154898 0.0 1011263
03:00+17в5135070 0.0 1011221
06:00+17в6155034 0.0 1011276
09:00+24вюв714385 0.0 1011629
12:00+29юв91429100 0.0 10102431
15:00+30юв81227100 0.0 10092755
18:00+26вюв51139100 0.0 1009251
21:00+20вюв59460 0.0 1010115
18 мая, вт
вт1800:00+18вюв49415 0.0 1009134
03:00+16всв5104213 0.0 1009144
06:00+16в41049100 0.0 1009179
09:00+23вюв573698 0.0 1008506
12:00+28юв683092 0.0 10081316
15:00+30ююв6142435 0.0 10063036
18:00+25ююз3550100 0.0 1006131
21:00+18з4777100 0.0 1008146
19 мая, ср
ср1900:00+17з498282 0.3 1009299
03:00+15з4989100 1.1 1009300
06:00+15зюз3685100 0.8 1010328
09:00+19юз686782 0.8 10111057
12:00+21ююз7959100 0.2 10121699
15:00+22ююз894599 0.6 10122340
18:00+18юз6106442 0.3 1012671
21:00+14юз613820 1.3 1014591
20 мая, чт
чт2000:00+12ююз4138499 0.0 1015425
03:00+11ююз512893 0.0 1015379
06:00+12ююз512850 0.0 1016465
09:00+18юз67605 0.0 10171003
12:00+21юз674685 0.0 10161731
15:00+23ююз453710 0.0 10161717
18:00+21ююв344735 0.0 1016196
21:00+17в445281 0.0 101541